Location: Nairn
(57.5833°N, 3.8667°W)
Time: 16:08:24
(UTC+00:00)

Helios 1B rocket - Pass Details

Date: 07 August 2020
Orbit: 575 x 583 km, 98.1° (Epoch: 23 September)

Event Time Altitude Azimuth Distance (km) Brightness Sun altitude
Rises 02:17:13 0° 11° (N) 2,807 7.5 -12.3°
Reaches altitude 10° 02:19:32 10° 1° (N) 1,902 6.1 -12.1°
Maximum altitude 02:23:09 30° 300° (WNW) 1,040 3.7 -11.9°
Enters shadow 02:26:12 13° 243° (WSW) 1,697 4.3 -11.7°
